Location: Unspecified
(0.0000°N, 0.0000°E)
Time: 17:57:42
(UTC+00:00)

STARLINK 1050 - Pass Details

Date: 23 January 2020
Orbit: 548 x 551 km, 53.0° (Epoch: 17 January)

Event Time Altitude Azimuth Distance (km) Brightness Sun altitude
Exits shadow 04:30:45 80° 139° (SE) 557 3.6 -23.7°
Maximum altitude 04:30:48 81° 124° (SE) 557 3.6 -23.7°
Drops below altitude 10° 04:34:55 10° 37° (NE) 1,808 6.4 -22.7°
Sets 04:37:08 0° 36° (NE) 2,697 7.3 -22.2°
